Accueil
METAR-TAF:

METAR-TAF

Aéroports :

Hugo, Oklahoma, États-Unis

latitude: 34-02-05N, longitude: 095-32-31W, altitude: 174 m

Observation

Le bulletin a été fait il y a 32 minutes, à 07:35 UTC
Vent 3 kt de est
Température 21°C
Humidité 94%
Pression 1013 hPa
Visibilité: 3.2 km
Ciel couvert à une hauteur de 300 ft
pluie

METAR: KHHW 240735Z AUTO 09003KT 2SM RA OVC003 21/20 A2991 RMK AO2 T02100200

Heure: 03:07 (08:07 UTC)


TAF: absent

Observations et prévisions météorologiques de plus de 4000 aéroports (messages METAR et TAF).

Les stations disponibles sont représentées par des disques jaunes et rouges sur la carte.

Passer la souris dessus pour voir le nom de la station.

Cliquer dessus pour voir les observations et prévisions météorologiques.

Pour changer de carte: cliquez sur les boutons verts avec une croix noire pour zoomer, sur le bouton vert avec un tiret pour effectuer un zoom arrière, ou sur les flèches vertes pour les cartes adjacentes.


METAR-TAF: